SCP
1 1 0 0 0 0 0 0 1 7 3 1 4 2 4 5 1 0 0 1 4 5
1 1 1 2 1 0 1 0 0 1 1 4 4 3 4 5 4 3 1 3 4 5
0 0 0 1 1 1 1 1 1 1 1 3 5 4 5 5 3 2 3 6 6 6
0 0 0 0 0 0 1 1 1 1 1 0 2 5 5 4 4 3 4 7 6 4
0 0 0 0 0 0 0 0 0 1 2 1 1 3 4 4 4 4 7 6 4 5
0 0 0 0 0 0 0 0 0 0 1 1 1 1 4 4 6 8 6 5 5 6
0 0 0 0 0 0 0 0 0 0 0 1 1 1 2 3 5 5 3 3 4 5
0 0 0 0 0 0 0 0 0 0 0 1 1 1 2 2 3 3 2 4 4 3
0 0 0 0 0 0 0 0 0 0 0 0 1 1 1 2 3 2 2 5 4 3
0 0 0 0 0 0 0 0 0 0 0 0 0 1 0 2 3 2 4 5 4 4
0 0 0 0 0 0 0 0 0 0 0 0 1 1 0 0 2 4 3 4 3 3
0 0 0 0 0 0 0 0 0 0 0 0 1 0 0 0 5 3 2 3 3 2
0 0 0 0 0 0 0 0 0 0 0 1 1 0 0 4 6 3 3 3 2 1
0 0 0 0 0 -0 0 0 0 0 0 1 1 0 0 4 5 3 3 2 1 0
Wind_Speed_500mb
26 37 43 38 37 42 50 58 55 50 46 63 68 77 69 87 86 91 100 94 84 73
33 35 35 37 42 50 58 60 61 61 50 46 59 71 80 89 89 89 90 95 89 78
30 33 33 37 45 41 44 51 60 66 67 58 53 61 71 73 81 90 98 96 95 76
37 32 38 42 48 47 49 56 49 58 70 75 56 61 68 76 79 78 85 96 87 64
33 43 39 44 53 50 59 65 64 62 64 73 83 67 72 77 80 82 91 92 73 61
36 36 48 47 53 58 64 69 66 64 64 67 73 78 84 80 83 88 90 86 70 60
46 51 50 53 59 66 69 71 75 70 66 71 73 78 72 81 87 89 79 68 65 52
56 59 62 65 63 71 75 77 78 77 70 65 77 78 76 72 82 78 72 70 60 52
57 63 68 73 70 72 77 78 79 80 74 69 77 80 77 79 79 65 70 71 67 55
61 64 70 74 70 79 78 75 81 84 78 75 80 77 77 84 80 71 70 72 67 61
64 66 70 75 83 90 82 76 83 84 84 75 80 76 82 85 83 73 67 73 66 63
59 67 77 86 94 97 92 86 82 84 82 77 80 78 81 85 89 72 65 66 61 58
67 71 76 82 95 84 79 83 82 79 83 79 80 84 81 93 93 69 68 61 57 53
70 79 86 86 84 78 78 81 84 82 82 76 80 82 87 96 78 75 63 63 53 51
Wind_Direction_500mb
254 249 255 259 263 261 255 245 238 252 258 254 256 258 255 247 252 244 245 246 256 260
258 260 260 261 257 256 260 260 251 242 249 264 253 251 252 255 254 240 244 252 262 258
281 271 273 269 261 263 272 270 264 254 244 247 260 251 247 252 256 248 245 247 256 253
261 274 272 268 268 268 266 256 261 267 254 250 244 252 246 245 252 243 240 244 246 244
266 261 267 271 270 268 269 265 257 251 263 260 246 242 247 248 249 237 237 242 242 235
273 274 268 272 271 269 268 274 268 261 254 259 258 248 240 241 239 234 242 247 233 228
276 276 277 276 273 270 269 267 270 263 250 258 249 252 243 233 237 239 236 234 226 228
277 284 287 282 275 274 273 265 264 267 253 253 250 242 243 237 234 238 218 220 226 225
271 277 283 285 278 272 268 265 265 264 257 247 249 241 236 231 230 224 213 211 220 227
271 276 282 282 274 270 273 266 262 264 258 246 247 241 231 229 223 214 210 212 220 213
267 271 279 275 271 268 269 267 261 261 257 250 244 236 227 225 217 210 209 214 221 213
272 274 279 270 272 274 258 261 264 263 259 250 242 230 229 222 207 208 205 215 212 209
276 274 265 267 278 264 257 261 261 259 255 251 236 228 220 215 203 200 204 207 211 207
275 273 267 275 267 256 258 265 257 257 254 247 228 220 209 202 194 197 197 199 198 196
Wind_Speed_850mb
26 37 43 38 37 42 50 58 55 50 46 63 68 77 69 87 86 91 100 94 84 73
33 35 35 37 42 50 58 60 61 61 50 46 59 71 80 89 89 89 90 95 89 78
30 33 33 37 45 41 44 51 60 66 67 58 53 61 71 73 81 90 98 96 95 76
37 32 38 42 48 47 49 56 49 58 70 75 56 61 68 76 79 78 85 96 87 64
33 43 39 44 53 50 59 65 64 62 64 73 83 67 72 77 80 82 91 92 73 61
36 36 48 47 53 58 64 69 66 64 64 67 73 78 84 80 83 88 90 86 70 60
46 51 50 53 59 66 69 71 75 70 66 71 73 78 72 81 87 89 79 68 65 52
56 59 62 65 63 71 75 77 78 77 70 65 77 78 76 72 82 78 72 70 60 52
57 63 68 73 70 72 77 78 79 80 74 69 77 80 77 79 79 65 70 71 67 55
61 64 70 74 70 79 78 75 81 84 78 75 80 77 77 84 80 71 70 72 67 61
64 66 70 75 83 90 82 76 83 84 84 75 80 76 82 85 83 73 67 73 66 63
59 67 77 86 94 97 92 86 82 84 82 77 80 78 81 85 89 72 65 66 61 58
67 71 76 82 95 84 79 83 82 79 83 79 80 84 81 93 93 69 68 61 57 53
70 79 86 86 84 78 78 81 84 82 82 76 80 82 87 96 78 75 63 63 53 51
Wind_Direction_850mb
254 249 255 259 263 261 255 245 238 252 258 254 256 258 255 247 252 244 245 246 256 260
258 260 260 261 257 256 260 260 251 242 249 264 253 251 252 255 254 240 244 252 262 258
281 271 273 269 261 263 272 270 264 254 244 247 260 251 247 252 256 248 245 247 256 253
261 274 272 268 268 268 266 256 261 267 254 250 244 252 246 245 252 243 240 244 246 244
266 261 267 271 270 268 269 265 257 251 263 260 246 242 247 248 249 237 237 242 242 235
273 274 268 272 271 269 268 274 268 261 254 259 258 248 240 241 239 234 242 247 233 228
276 276 277 276 273 270 269 267 270 263 250 258 249 252 243 233 237 239 236 234 226 228
277 284 287 282 275 274 273 265 264 267 253 253 250 242 243 237 234 238 218 220 226 225
271 277 283 285 278 272 268 265 265 264 257 247 249 241 236 231 230 224 213 211 220 227
271 276 282 282 274 270 273 266 262 264 258 246 247 241 231 229 223 214 210 212 220 213
267 271 279 275 271 268 269 267 261 261 257 250 244 236 227 225 217 210 209 214 221 213
272 274 279 270 272 274 258 261 264 263 259 250 242 230 229 222 207 208 205 215 212 209
276 274 265 267 278 264 257 261 261 259 255 251 236 228 220 215 203 200 204 207 211 207
275 273 267 275 267 256 258 265 257 257 254 247 228 220 209 202 194 197 197 199 198 196